Tracking 25686 objects as of 25-May-2022
HD Live streaming from Space Station
objects crossing your sky now

ARIANE 42P DEB

Track ARIANE 42P DEB now!
10-day predictions


NORAD ID: 47107
Int'l Code: 1992-052N
Perigee: 1,282.1 km
Apogee: 1,420.8 km
Inclination: 66.1 °
Period: 112.6 minutes
Semi major axis: 7722 km
RCS: Unknown
Launch date: August 10, 1992
Source: France (FR)
Launch site: FRENCH GUIANA (FRGUI)

Note: This is SATELLITE DEBRIS
aabbcc
Your satellite tracking list
Your tracking list is empty




NASA's NSSDC Master Catalog

Two Line Element Set (TLE):
1 47107U 92052N   22144.34273664  .00001633  00000-0  73871-2 0  9996
2 47107  66.0634 128.0750 0089820 261.9522  97.1294 12.79300764116518
Source of the keplerian elements: AFSPC